Regional Weather Roundup
Issued by NWS

Home | Current Version | Previous Version | Graphics & Text | Print | Product List | Glossary On
Versions: 1 2 3 4 5 6 7 8 9 10 11 12 13 14 15 16 17 18 19 20 21 22 23 24 25 26 27 28 29 30 31 32 33 34 35 36 37 38 39 40 41 42 43 44 45 46 47 48 49 50
000
ASUS43 KIND 240009
RWRIN

WEATHER ROUNDUP FOR INDIANA
NATIONAL WEATHER SERVICE INDIANAPOLIS IN
800 PM EDT WED APR 23 2014

NOTE: "FAIR" INDICATES FEW OR NO CLOUDS BELOW 12,000 FEET WITH NO
SIGNIFICANT WEATHER AND/OR OBSTRUCTIONS TO VISIBILITY.

* - STATION DOES NOT REPORT WEATHER SUCH AS PRECIPITATION OR FOG.

+ - STATION NOT QUALITY CONTROLLED BY THE NATIONAL WEATHER SERVICE.
    USE DATA WITH CAUTION...ESPECIALLY DEWPOINT AND RELATIVE
    HUMIDITY OBSERVATIONS.

INZ001>003-010>013-019-020-240100-
NORTHWEST INDIANA

CITY           SKY/WX    TMP DP  RH WIND       PRES   REMARKS
GARY /AIRPORT/ MOCLDY    41  30  65 NE5G18    30.14R
LA PORTE +     MOCLDY    42  29  58 N9        30.11S
6HR MIN TEMP:  42; 6HR MAX TEMP:  50;

MICHIGAN CITY+ MOCLDY    37  28  70 N6        30.13R
MONTICELLO +   CLEAR     57  28  32 E3        30.06F
RENSSELAER +   PTCLDY    52  32  46 N12       30.08S
VALPARAISO     MOCLDY    42  28  57 N9        30.11S
6HR MIN TEMP:  42; 6HR MAX TEMP:  50;


$$

LMZ046-743>745-240100-
SOUTHERN LAKE MICHIGAN

STATION/POSITION TIME  TEMP WIND        PRES
                       AIR  DIR/SP/G
                 (UTC) (F)  (DEG/KT/KT) (MB)
MICHIGAN CITY    0000   38   10/ 10/ 12   N/A

$$

INZ004-005-014>016-021>024-240100-
NORTH CENTRAL INDIANA

CITY           SKY/WX    TMP DP  RH WIND       PRES   REMARKS
GOSHEN         MOCLDY    54  28  36 E6        30.07F
6HR MIN TEMP:  52; 6HR MAX TEMP:  59;

LOGANSPORT +   CLEAR     55  27  33 CALM      30.07F
PERU/GRISSOM   CLEAR     55  31  41 NE6       30.07S
6HR MIN TEMP:  53; 6HR MAX TEMP:  60;

ROCHESTER +    CLEAR     57  28  33 CALM      30.08S
SOUTH BEND     MOCLDY    49  32  52 N10       30.10F
6HR MIN TEMP:  49; 6HR MAX TEMP:  55;

WARSAW +       PTCLDY    54  28  37 NE5       30.07F

$$

INZ006>009-017-018-025>027-240100-
NORTHEAST INDIANA

CITY           SKY/WX    TMP DP  RH WIND       PRES   REMARKS
ANGOLA *+      CLEAR     52  21  30 NE3       30.08R
AUBURN +       PTCLDY    54  21  28 N5        30.08S
FORT WAYNE     MOCLDY    53  27  36 NE6       30.08R
6HR MIN TEMP:  53; 6HR MAX TEMP:  59;


$$

INZ028-029-035-036-043>045-051>053-240100-
WEST CENTRAL INDIANA

CITY           SKY/WX    TMP DP  RH WIND       PRES   REMARKS
GREENCASTLE +  CLEAR     54  32  43 NE5       30.06F
LAFAYETTE      PTCLDY    56  29  35 NE6       30.07S
6HR MIN TEMP:  52; 6HR MAX TEMP:  59;

TERRE HAUTE    PTCLDY    57  34  41 NE7       30.05S
6HR MIN TEMP:  57; 6HR MAX TEMP:  63;


$$

INZ030>032-037>040-046>048-054>057-064-065-240100-
CENTRAL INDIANA

CITY           SKY/WX    TMP DP  RH WIND       PRES   REMARKS
CP ATTERBURY + CLEAR     55  30  38 NE5       30.08R
COLUMBUS       CLEAR     57  28  33 N7        30.07R
INDIANAPOLIS   PTCLDY    55  28  35 CALM      30.06S
6HR MIN TEMP:  53; 6HR MAX TEMP:  59;

-EAGLE CREEK   CLEAR     56  28  34 NE3       30.06S
6HR MIN TEMP:  53; 6HR MAX TEMP:  59;

KOKOMO *+      CLEAR     57  28  33 NE5       30.07S
MARION +       CLEAR     56  25  30 NE6       30.07F
MT COMFORT *+  CLEAR     55  32  41 NE3       30.07S
SHELBYVILLE    PTCLDY    59  31  34 N5        30.06R HAZE
6HR MIN TEMP:  55; 6HR MAX TEMP:  62;

ZIONSVILLE +   CLEAR     56  27  33 N3        30.07F
6HR MIN TEMP:  53; 6HR MAX TEMP:  59;


$$

INZ033-034-041-042-049-050-058-059-240100-
EAST CENTRAL INDIANA

CITY           SKY/WX    TMP DP  RH WIND       PRES   REMARKS
MUNCIE           N/A     55  30  38 NE5       30.07R
6HR MIN TEMP:  52; 6HR MAX TEMP:  58;


$$

INZ060-061-067>069-081>083-085>088-240100-
SOUTHWEST INDIANA

CITY           SKY/WX    TMP DP  RH WIND       PRES   REMARKS
EVANSVILLE     CLEAR     63  32  31 N6        30.03S
6HR MIN TEMP:  60; 6HR MAX TEMP:  67;

HUNTINGBURG *+ CLEAR     61  36  39 E5        30.03F
6HR MIN TEMP:  57; 6HR MAX TEMP:  64;

WASHINGTON +   PTCLDY    62  32  32 CALM      30.02F
6HR MIN TEMP:  56; 6HR MAX TEMP:  64;


$$

INZ062-063-066-070>080-084-089>092-240100-
SOUTH CENTRAL AND SOUTHEAST INDIANA

CITY           SKY/WX    TMP DP  RH WIND       PRES   REMARKS
BLOOMINGTON    CLEAR     57  26  30 NE7       30.04S
6HR MIN TEMP:  57; 6HR MAX TEMP:  63;


$$




USA.gov is the U.S. government's official web portal to all federal, state and local government web resources and services.